DW3648 Granada ES current weather conditions

sailwx.info

Wind from 103

Air temperature 8.9° C
Dewpoint 1.6° C

Last reported at 2017-Nov-19 23:53 UTC.
Time now 2017-Nov-20 00:18 UTC

Location: N 37°10' W 003°35'.
View on Google Maps.

See reports from other nearby stations

  
Tides and Currents Weather Stations Pressure Air Temp Water Temp Dewpoint Dewpoint Depression Visibility Wind Speed Wind Dir Waves Ship Positions
date/time (UTC)wind fromknots sea level pressurealtimeterstation pressurevisibilityair tempwater tempwave heightnotes
2017-Nov-19 23:53 103 8.9
2017-Nov-19 23:38 103 9.4
2017-Nov-19 23:23 103 0 gusting 1 9.4
2017-Nov-19 23:08 103 9.4
2017-Nov-19 22:53 103 9.4
2017-Nov-19 22:38 103 9.4
2017-Nov-19 22:23 103 10.0
2017-Nov-19 22:08 103 10.0
2017-Nov-19 21:53 103 10.6
2017-Nov-19 21:38 104 10.6
2017-Nov-19 21:23 104 10.6
2017-Nov-19 21:08 104 10.6
2017-Nov-19 20:53 103 11.1
2017-Nov-19 20:38 103 11.7
2017-Nov-19 20:23 103 11.7
2017-Nov-19 20:08 275 11.7
2017-Nov-19 19:53 275 11.7
2017-Nov-19 19:38 275 11.7
2017-Nov-19 19:22 275 12.2
2017-Nov-19 19:08 275 12.2
2017-Nov-19 18:53 275 12.8
2017-Nov-19 18:37 275 13.3
2017-Nov-19 18:23 275 1 gusting 4 13.3
2017-Nov-19 18:07 275 13.9
2017-Nov-19 17:52 275 1 gusting 4 14.4
2017-Nov-19 17:38 275 15.0
2017-Nov-19 17:23 275 0 gusting 2 16.7
2017-Nov-19 17:07 275 18.3
2017-Nov-19 16:52 275 20.0
2017-Nov-19 16:37 275 21.1
2017-Nov-19 16:22 275 21.7
2017-Nov-19 16:07 275 22.2
2017-Nov-19 15:52 275 0 gusting 3 22.2
2017-Nov-19 15:37 275 22.2
2017-Nov-19 15:22 275 22.2
2017-Nov-19 15:08 276 22.2
2017-Nov-19 14:52 284 21.7
2017-Nov-19 14:37 284 22.2
2017-Nov-19 14:22 284 21.7
2017-Nov-19 14:07 284 20.6
2017-Nov-19 13:52 332 0 gusting 5 20.6
2017-Nov-19 13:37 262 0 gusting 4 20.6
2017-Nov-19 13:22 288 1 gusting 4 20.6
2017-Nov-19 13:07 268 20.0
2017-Nov-19 12:52 268 1 gusting 4 19.4
2017-Nov-19 12:37 249 0 gusting 4 20.0
2017-Nov-19 12:22 229 0 gusting 4 19.4
2017-Nov-19 12:07 229 18.9
2017-Nov-19 11:52 229 17.8
2017-Nov-19 11:37 229 0 gusting 3 17.8
2017-Nov-19 11:22 230 0 gusting 3 17.8
2017-Nov-19 11:07 231 17.2
2017-Nov-19 10:52 231 16.1
2017-Nov-19 10:37 232 16.1
2017-Nov-19 10:22 190 0 gusting 5 15.0
2017-Nov-19 10:07 080 15.0
2017-Nov-19 09:52 080 0 gusting 2 14.4
2017-Nov-19 09:36 080 13.3
2017-Nov-19 09:21 080 12.2
2017-Nov-19 09:06 080 12.2
2017-Nov-19 08:51 080 11.1
2017-Nov-19 08:36 079 9.4
2017-Nov-19 08:21 080 8.9
2017-Nov-19 08:06 080 7.2
2017-Nov-19 07:59 080 7.2